Вернуться в каталог

COSMOS 1823 DEB

АктивенLEO
NORAD 39806·DEBRIS·🇷🇺 Russia

Запущен Feb 20, 1987 с Plesetsk Cosmodrome

Loading…

Ближайшие Пролёты (ближайшие 24 часа)

TLE

СвежийSource: Space-Track

Эпоха: Sep 13, 2026, 20:38 UTC

1 39806U 87020EE  26256.86026855  .00000166  00000-0  13671-2 0  9997
2 39806  73.6306 110.8589 0063572 214.5059 145.1850 12.39902713557013

Отслеживайте COSMOS 1823 DEB в реальном времени с AllMySat

Download on the App Store